TimeCDT,TemperatureF,Dew PointF,Humidity,Sea Level PressureIn,VisibilityMPH,Wind Direction,Wind SpeedMPH,Gust SpeedMPH,PrecipitationIn,Events,Conditions,WindDirDegrees,DateUTC
12:53 AM,60.1,55.0,83,30.00,10.0,WSW,3.5,-,N/A,,Clear,250,2013-05-07 05:53:00
1:53 AM,57.0,55.0,93,29.99,10.0,Calm,Calm,-,N/A,,Clear,0,2013-05-07 06:53:00
2:53 AM,55.0,53.1,93,29.98,10.0,Calm,Calm,-,N/A,,Clear,0,2013-05-07 07:53:00
3:53 AM,55.0,53.1,93,29.99,10.0,Calm,Calm,-,N/A,,Clear,0,2013-05-07 08:53:00
4:53 AM,55.9,54.0,93,30.00,10.0,Calm,Calm,-,N/A,,Clear,0,2013-05-07 09:53:00
5:53 AM,54.0,52.0,93,30.01,10.0,Calm,Calm,-,N/A,,Clear,0,2013-05-07 10:53:00
6:53 AM,55.0,53.1,93,30.03,10.0,Calm,Calm,-,N/A,,Clear,0,2013-05-07 11:53:00
7:53 AM,63.0,55.9,78,30.03,10.0,Calm,Calm,-,N/A,,Clear,0,2013-05-07 12:53:00
8:53 AM,66.9,57.9,73,30.05,10.0,Calm,Calm,-,N/A,,Clear,0,2013-05-07 13:53:00
9:53 AM,73.9,57.0,55,30.06,10.0,Calm,Calm,-,N/A,,Clear,0,2013-05-07 14:53:00
10:53 AM,75.0,55.0,50,30.06,10.0,Calm,Calm,-,N/A,,Clear,0,2013-05-07 15:53:00
11:43 AM,77.0,55.4,47,30.06,2.5,Variable,5.8,-,N/A,,Haze,0,2013-05-07 16:43:00
11:53 AM,77.0,55.0,47,30.06,2.5,Calm,Calm,-,N/A,,Haze,0,2013-05-07 16:53:00
12:16 PM,77.0,55.4,47,30.05,10.0,NNE,4.6,-,N/A,,Partly Cloudy,20,2013-05-07 17:16:00
12:53 PM,79.0,55.9,45,30.04,10.0,North,-9999.0,-,N/A,,Scattered Clouds,0,2013-05-07 17:53:00
1:53 PM,79.0,50.0,36,30.03,10.0,WNW,9.2,-,N/A,,Partly Cloudy,300,2013-05-07 18:53:00
2:53 PM,79.0,53.1,40,30.02,10.0,West,12.7,21.9,N/A,,Partly Cloudy,260,2013-05-07 19:53:00
3:53 PM,80.1,53.1,39,30.00,10.0,NW,6.9,-,N/A,,Clear,320,2013-05-07 20:53:00
4:53 PM,80.1,53.1,39,29.99,10.0,West,8.1,-,N/A,,Partly Cloudy,260,2013-05-07 21:53:00
5:53 PM,80.1,53.1,39,29.99,10.0,Variable,4.6,-,N/A,,Clear,0,2013-05-07 22:53:00
6:53 PM,78.1,52.0,40,29.99,10.0,NW,4.6,-,N/A,,Clear,310,2013-05-07 23:53:00
7:53 PM,71.1,55.9,59,30.00,10.0,Calm,Calm,-,N/A,,Clear,0,2013-05-08 00:53:00
8:53 PM,66.9,55.9,68,30.01,10.0,Calm,Calm,-,N/A,,Clear,0,2013-05-08 01:53:00
9:53 PM,64.0,57.0,78,30.03,10.0,Calm,Calm,-,N/A,,Clear,0,2013-05-08 02:53:00
10:53 PM,66.0,57.0,73,30.05,10.0,SW,4.6,-,N/A,,Clear,220,2013-05-08 03:53:00
11:53 PM,64.9,57.0,75,30.06,10.0,SW,4.6,-,N/A,,Clear,230,2013-05-08 04:53:00